Home > Weather > Delbrück > Past weeks

Flag for Germany Past Weather in Delbrück, North Rhine-Westphalia, Germany — Yesterday and Last 2 Weeks

Now
66 °F

Passing clouds.


Feels Like: 66 °F
Forecast: 55 / 69 °F
Wind: 5 mph from West

Location: Paderborn / Lippstadt

Current Time: Aug 28, 2016 at 11:01:27 PM

Latest Report: Aug 28, 2016 at 10:20 PM


Visibility: N/A

Pressure: 30.01 "Hg

Humidity: 73%

Dew Point: 57 °F

Location of DelbrückLocation

Past Weather in Delbrück — Graph

°F

Delbrück Temperature Yesterday

Maximum temperature yesterday: 90 °F (at 3:50 PM)
Minimum temperature yesterday: 63 °F (at 5:20 AM)
Average temperature yesterday: 75 °F

High & Low Weather Summary for the Past Weeks

 TemperatureHumidityPressure
High91 °F (Aug 25, 4:20 PM)100% (Aug 27, 5:20 AM)30.36 "Hg (Aug 27, 5:20 AM)
Low46 °F (Aug 16, 6:50 AM)17% (Aug 25, 4:50 PM)29.80 "Hg (Aug 18, 3:50 PM)
Average68 °F63%30.07 "Hg
* Reported Aug 13 9:20 PM — Aug 28 9:50 PM, Delbrück, Weather by CustomWeather, © 2016

Note: Actual official high and low records may vary slightly from our data, if they occured in-between our weather recording intervals... More about our weather records

Advertising

Delbrück Weather History for the Previous 24 Hours

Scroll right to see more
 ConditionsComfort  
Time TempWeatherWind HumidityBarometerVisibility
9:50 PM
Sun, Aug 28
68 °FPassing clouds.6 mph73%30.01 "HgN/A
9:20 PM68 °FPassing clouds.5 mph73%29.98 "HgN/A
8:50 PM70 °FScattered clouds.6 mph73%29.98 "HgN/A
8:20 PM72 °FScattered clouds.8 mph78%29.95 "HgN/A
7:50 PM72 °FScattered clouds.7 mph83%29.95 "HgN/A
7:20 PM73 °FSunny.9 mph78%29.95 "Hg10 mi
6:50 PM72 °FPassing clouds.7 mph83%29.92 "HgN/A
6:20 PM70 °FSunny.10 mph83%29.95 "Hg10 mi
5:50 PM70 °FThundershowers. Scattered clouds.8 mph83%29.92 "HgN/A
5:20 PM72 °FThundershowers. Scattered clouds.12 mph73%29.92 "HgN/A
4:50 PM70 °FSprinkles. Scattered clouds.13 mph73%29.92 "HgN/A
4:20 PM77 °FSprinkles. Scattered clouds.9 mph51%29.92 "HgN/A
3:50 PM81 °FSprinkles. Scattered clouds.16 mph34%29.89 "HgN/A
3:20 PM88 °FScattered showers. Scattered clouds.13 mph29%29.86 "HgN/A
2:50 PM91 °FPassing clouds.15 mph24%29.86 "HgN/A
2:20 PM91 °FSunny.16 mph26%29.89 "Hg10 mi
1:50 PM91 °FPassing clouds.17 mph26%29.89 "HgN/A
1:20 PM91 °FSunny.18 mph28%29.89 "Hg10 mi
12:50 PM90 °FSunny.17 mph29%29.92 "Hg10 mi
12:20 PM90 °FSunny.14 mph31%29.92 "Hg10 mi
11:50 AM90 °FSunny.14 mph31%29.92 "Hg10 mi
11:20 AM88 °FSunny.9 mph29%29.92 "Hg10 mi
10:50 AM88 °FPassing clouds.8 mph33%29.92 "HgN/A
10:20 AM86 °FSunny.6 mph35%29.92 "Hg10 mi
9:50 AM84 °FSunny.6 mph35%29.92 "Hg10 mi
9:20 AM79 °FSunny.8 mph54%29.92 "Hg10 mi
8:50 AM75 °FSunny.2 mph61%29.92 "Hg10 mi
8:20 AM73 °FSunny.6 mph65%29.92 "Hg10 mi
7:50 AM72 °FPassing clouds.3 mph65%29.95 "HgN/A
7:20 AM70 °FClear.8 mph69%29.92 "Hg10 mi
6:50 AM72 °FPassing clouds.3 mph61%29.92 "HgN/A
6:20 AM70 °FClear.9 mph64%29.92 "Hg10 mi
5:50 AM75 °FPassing clouds.3 mph54%29.95 "HgN/A
5:20 AM70 °FClear.2 mph69%29.95 "Hg10 mi
4:50 AM70 °FClear.6 mph69%29.95 "Hg10 mi
4:20 AM73 °FClear.5 mph61%29.95 "Hg10 mi
3:50 AM75 °FClear.3 mph57%29.95 "Hg10 mi
3:20 AM75 °FClear.5 mph57%29.98 "Hg10 mi
2:50 AM77 °FPassing clouds.10 mph54%29.98 "HgN/A
2:20 AM77 °FClear.8 mph54%29.95 "Hg10 mi
1:50 AM75 °FClear.6 mph57%29.95 "Hg10 mi
1:20 AM77 °FClear.7 mph54%29.98 "Hg10 mi
12:50 AM73 °FClear.5 mph65%29.98 "Hg10 mi
12:20 AM72 °FClear.3 mph69%29.98 "Hg10 mi
11:50 PM
Sat, Aug 27
73 °FClear.2 mph65%29.98 "Hg10 mi
11:20 PM73 °FClear.7 mph69%29.98 "Hg10 mi
Weather by CustomWeather, © 2016

See weather overviewHow to use our weather pages